Location: Saint Louis
(38.6272°N, 90.1978°W)
Time: 11:00:39
(UTC-05:00)

ISS - Pass Details

Date: 29 November 2013
Orbit: 402 x 406 km, 51.6° (Epoch: 31 August)

Event Time Altitude Azimuth Distance (km) Brightness Sun altitude
Exits shadow 05:44:02 22° 247° (WSW) 931 -1.9 -14.2°
Maximum altitude 05:44:41 24° 228° (SW) 888 -1.9 -14.1°
Drops below altitude 10° 05:47:20 10° 172° (S) 1,444 -0.2 -13.6°
Sets 05:49:38 0° 158° (SSE) 2,298 1.1 -13.2°
